When you browse on this site, cookies collect data to enhance your experience and personalize the content and advertising you see.
Visit our Privacy Policy to learn more. By continuing to use the site, you agree to this use of cookies and data.
  • In Czech Republic
  • List of Countries
  • For 7 days
  • Water Temperature
  • Satellite Maps
  • Weather Map
  • Weather Widgets
  • user-avatar
    Login

    Hourly Weather Lubango

    Today, 20 January, Sunday

    Time Temperature Precipitation Wind Pressure Humidity
    00:00 +15°C° 0.2 mm 1 mps 608 mmHg 85%
    01:00 +14°C° 0 mm 0 mps 608 mmHg 89%
    02:00 +14°C° 1.4 mm 0 mps 608 mmHg 90%
    03:00 +14°C° 1.4 mm 0 mps 608 mmHg 91%
    04:00 +14°C° 1.4 mm 0 mps 608 mmHg 91%
    05:00 +14°C° 1.2 mm 0 mps 609 mmHg 91%
    06:00 +15°C° 1.2 mm 0 mps 609 mmHg 91%
    07:00 +15°C° 1.2 mm 0 mps 609 mmHg 90%
    08:00 +16°C° 0.8 mm 0 mps 609 mmHg 86%
    09:00 +17°C° 0.8 mm 0 mps 610 mmHg 82%
    10:00 +18°C° 0.8 mm 0 mps 610 mmHg 78%
    11:00 +21°C° 0.3 mm 1 mps 610 mmHg 71%
    12:00 +23°C° 0.3 mm 1 mps 611 mmHg 63%
    13:00 +25°C° 0.3 mm 1 mps 611 mmHg 56%
    14:00 +24°C° 1.3 mm 1 mps 610 mmHg 59%
    15:00 +23°C° 1.3 mm 1 mps 609 mmHg 63%
    16:00 +23°C° 1.3 mm 1 mps 609 mmHg 67%
    17:00 +22°C° 0.7 mm 1 mps 609 mmHg 70%
    18:00 +21°C° 0.7 mm 1 mps 609 mmHg 74%
    19:00 +20°C° 0.7 mm 1 mps 609 mmHg 78%
    20:00 +19°C° 0.5 mm 1 mps 609 mmHg 82%
    21:00 +18°C° 0.5 mm 1 mps 609 mmHg 85%
    22:00 +16°C° 0.5 mm 0 mps 609 mmHg 89%
    23:00 +15°C° 0.3 mm 0 mps 609 mmHg 90%

    Tomorrow, 21 January, Monday

    Time Temperature Precipitation Wind Pressure Humidity
    00:00 +15°C° 0.3 mm 0 mps 609 mmHg 92%
    01:00 +15°C° 0.3 mm 0 mps 609 mmHg 93%
    02:00 +15°C° 0.9 mm 0 mps 609 mmHg 93%
    03:00 +16°C° 0.9 mm 1 mps 609 mmHg 93%
    04:00 +16°C° 0.9 mm 1 mps 609 mmHg 93%
    05:00 +16°C° 0.2 mm 1 mps 609 mmHg 93%
    06:00 +16°C° 0.2 mm 1 mps 609 mmHg 92%
    07:00 +15°C° 0.2 mm 0 mps 609 mmHg 91%
    08:00 +18°C° 0.1 mm 1 mps 610 mmHg 84%
    09:00 +20°C° 0.1 mm 1 mps 611 mmHg 77%
    10:00 +20°C° 0.1 mm 2 mps 611 mmHg 70%
    11:00 +20°C° 0.7 mm 2 mps 611 mmHg 69%
    12:00 +21°C° 0.7 mm 1 mps 611 mmHg 68%
    13:00 +22°C° 0.7 mm 1 mps 610 mmHg 68%
    14:00 +21°C° 1.6 mm 1 mps 609 mmHg 73%
    15:00 +20°C° 1.6 mm 1 mps 609 mmHg 78%
    16:00 +19°C° 1.6 mm 1 mps 608 mmHg 84%
    17:00 +19°C° 0.8 mm 1 mps 608 mmHg 86%
    18:00 +18°C° 0.8 mm 1 mps 608 mmHg 89%
    19:00 +18°C° 0.8 mm 1 mps 608 mmHg 91%
    20:00 +18°C° 0.1 mm 1 mps 608 mmHg 92%
    21:00 +16°C° 0.1 mm 1 mps 609 mmHg 93%
    22:00 +16°C° 0.1 mm 1 mps 609 mmHg 94%
    23:00 +16°C° 0.1 mm 1 mps 609 mmHg 95%

    Day after tomorrow, 22 January, Tuesday

    Time Temperature Precipitation Wind Pressure Humidity
    00:00 +16°C° 0.1 mm 1 mps 609 mmHg 96%
    01:00 +16°C° 0.1 mm 1 mps 608 mmHg 97%
    02:00 +16°C° 0.4 mm 1 mps 608 mmHg 97%
    03:00 +16°C° 0.4 mm 1 mps 608 mmHg 96%
    04:00 +16°C° 0.4 mm 1 mps 608 mmHg 96%
    05:00 +16°C° 1 mm 1 mps 608 mmHg 95%
    06:00 +16°C° 1 mm 1 mps 609 mmHg 94%
    07:00 +16°C° 1 mm 1 mps 609 mmHg 94%
    08:00 +19°C° 0.7 mm 1 mps 610 mmHg 86%
    09:00 +20°C° 0.7 mm 1 mps 610 mmHg 79%
    10:00 +22°C° 0.7 mm 1 mps 611 mmHg 72%
    11:00 +23°C° 1.1 mm 1 mps 611 mmHg 68%
    12:00 +23°C° 1.1 mm 1 mps 611 mmHg 64%
    13:00 +24°C° 1.1 mm 1 mps 610 mmHg 61%
    14:00 +24°C° 1.1 mm 2 mps 609 mmHg 63%
    15:00 +23°C° 1.1 mm 2 mps 609 mmHg 66%
    16:00 +21°C° 1.1 mm 2 mps 608 mmHg 69%
    17:00 +20°C° 0.2 mm 2 mps 608 mmHg 74%
    18:00 +18°C° 0.2 mm 2 mps 608 mmHg 80%
    19:00 +17°C° 0.2 mm 2 mps 608 mmHg 85%
    20:00 +17°C° 0 mm 2 mps 608 mmHg 86%
    21:00 +16°C° 0 mm 1 mps 608 mmHg 87%
    22:00 +16°C° 0 mm 1 mps 609 mmHg 88%
    23:00 +15°C° 0 mm 1 mps 608 mmHg 89%

    23 January, Wednesday

    Time Temperature Precipitation Wind Pressure Humidity
    00:00 +15°C° 0 mm 1 mps 608 mmHg 89%
    01:00 +15°C° 0 mm 1 mps 607 mmHg 90%
    02:00 +15°C° 0 mm 1 mps 607 mmHg 90%
    03:00 +14°C° 0 mm 1 mps 607 mmHg 89%
    04:00 +14°C° 0 mm 1 mps 607 mmHg 89%
    05:00 +15°C° 0 mm 1 mps 607 mmHg 86%
    06:00 +16°C° 0 mm 1 mps 608 mmHg 83%
    07:00 +15°C° 0 mm 0 mps 608 mmHg 80%
    08:00 +20°C° 0 mm 1 mps 610 mmHg 70%
    09:00 +23°C° 0 mm 1 mps 611 mmHg 59%
    10:00 +25°C° 0 mm 1 mps 612 mmHg 49%
    11:00 +26°C° 0.1 mm 2 mps 611 mmHg 47%
    12:00 +27°C° 0.1 mm 2 mps 611 mmHg 45%
    13:00 +27°C° 0.1 mm 2 mps 610 mmHg 42%
    14:00 +26°C° 0.1 mm 2 mps 609 mmHg 46%
    15:00 +25°C° 0.1 mm 2 mps 609 mmHg 50%
    16:00 +24°C° 0.1 mm 2 mps 608 mmHg 54%
    17:00 +21°C° 0 mm 2 mps 608 mmHg 58%
    18:00 +20°C° 0 mm 2 mps 607 mmHg 63%
    19:00 +18°C° 0 mm 2 mps 607 mmHg 67%
    20:00 +18°C° 0 mm 1 mps 607 mmHg 70%
    21:00 +18°C° 0 mm 1 mps 608 mmHg 74%
    22:00 +16°C° 0 mm 1 mps 608 mmHg 77%
    23:00 +15°C° 0 mm 1 mps 607 mmHg 77%

    24 January, Thursday

    Time Temperature Precipitation Wind Pressure Humidity
    00:00 +15°C° 0 mm 1 mps 607 mmHg 78%
    01:00 +15°C° 0 mm 1 mps 607 mmHg 78%
    02:00 +15°C° 0 mm 1 mps 606 mmHg 78%
    03:00 +14°C° 0 mm 0 mps 606 mmHg 78%
    04:00 +13°C° 0 mm 0 mps 606 mmHg 78%
    05:00 +14°C° 0 mm 0 mps 606 mmHg 75%
    06:00 +15°C° 0 mm 0 mps 607 mmHg 72%
    07:00 +16°C° 0 mm 0 mps 608 mmHg 69%
    08:00 +21°C° 0 mm 1 mps 609 mmHg 59%
    09:00 +24°C° 0 mm 1 mps 610 mmHg 49%
    10:00 +27°C° 0 mm 1 mps 611 mmHg 39%
    11:00 +28°C° 0 mm 2 mps 611 mmHg 35%
    12:00 +29°C° 0 mm 2 mps 611 mmHg 31%
    13:00 +30°C° 0 mm 3 mps 611 mmHg 27%
    14:00 +29°C° 0 mm 3 mps 610 mmHg 29%
    15:00 +29°C° 0 mm 2 mps 609 mmHg 31%
    16:00 +28°C° 0 mm 2 mps 609 mmHg 32%
    17:00 +26°C° 0 mm 2 mps 608 mmHg 42%
    18:00 +23°C° 0 mm 2 mps 608 mmHg 52%
    19:00 +21°C° 0 mm 1 mps 607 mmHg 61%
    20:00 +20°C° 0 mm 1 mps 607 mmHg 66%
    21:00 +19°C° 0 mm 1 mps 608 mmHg 70%
    22:00 +16°C° 0 mm 0 mps 608 mmHg 75%
    23:00 +16°C° 0 mm 0 mps 608 mmHg 76%

    25 January, Friday

    Time Temperature Precipitation Wind Pressure Humidity
    00:00 +16°C° 0 mm 0 mps 607 mmHg 77%
    01:00 +15°C° 0 mm 0 mps 607 mmHg 78%
    02:00 +15°C° 0 mm 0 mps 607 mmHg 78%
    03:00 +16°C° 0 mm 1 mps 607 mmHg 78%
    04:00 +16°C° 0 mm 1 mps 607 mmHg 79%
    05:00 +18°C° 0 mm 1 mps 607 mmHg 75%
    06:00 +19°C° 0 mm 1 mps 608 mmHg 72%
    07:00 +18°C° 0 mm 0 mps 609 mmHg 69%
    08:00 +22°C° 0 mm 1 mps 610 mmHg 60%
    09:00 +25°C° 0 mm 1 mps 611 mmHg 51%
    10:00 +27°C° 0 mm 2 mps 612 mmHg 41%
    11:00 +28°C° 0 mm 2 mps 611 mmHg 42%
    12:00 +28°C° 0 mm 2 mps 611 mmHg 42%
    13:00 +28°C° 0 mm 2 mps 610 mmHg 43%
    14:00 +27°C° 0.3 mm 2 mps 609 mmHg 48%
    15:00 +25°C° 0.3 mm 2 mps 608 mmHg 53%
    16:00 +24°C° 0.3 mm 2 mps 608 mmHg 58%
    17:00 +23°C° 0.3 mm 2 mps 608 mmHg 62%
    18:00 +21°C° 0.3 mm 2 mps 608 mmHg 67%
    19:00 +20°C° 0.3 mm 2 mps 608 mmHg 71%
    20:00 +20°C° 0.4 mm 1 mps 608 mmHg 75%
    21:00 +19°C° 0.4 mm 1 mps 608 mmHg 80%
    22:00 +18°C° 0.4 mm 1 mps 609 mmHg 84%
    23:00 +18°C° 0 mm 1 mps 608 mmHg 85%
    Show more